PST,Max TemperatureF,Mean TemperatureF,Min TemperatureF,Max Dew PointF,MeanDew PointF,Min DewpointF,Max Humidity, Mean Humidity, Min Humidity, Max Sea Level PressureIn, Mean Sea Level PressureIn, Min Sea Level PressureIn, Max VisibilityMiles, Mean VisibilityMiles, Min VisibilityMiles, Max Wind SpeedMPH, Mean Wind SpeedMPH, Max Gust SpeedMPH,PrecipitationIn, CloudCover, Events, WindDirDegrees
2012-11-1,69,57,45,59,55,45,100,82,63,30.04,30.01,29.97,10,9,0,13,4,15,T,5,Fog-Rain,222
2012-11-2,68,55,41,53,45,41,100,79,58,30.09,30.05,30.00,10,4,0,9,3,15,0.00,3,Fog,192
2012-11-3,73,59,45,55,51,43,93,73,53,30.13,30.09,30.05,10,10,10,9,2,18,0.00,2,,208
2012-11-4,78,63,47,57,51,46,93,68,43,30.19,30.15,30.10,10,9,2,8,2,15,0.00,0,,228
2012-11-5,81,65,49,57,52,48,100,71,42,30.14,30.09,30.01,10,7,0,17,7,22,0.00,0,Fog,77
2012-11-6,81,64,47,59,52,45,93,68,42,30.07,30.02,29.97,10,8,0,14,3,28,0.00,0,Fog,63
2012-11-7,63,55,46,56,51,46,100,89,78,30.06,29.99,29.87,10,5,0,16,6,24,0.00,5,Fog,224
2012-11-8,60,50,39,49,43,37,89,73,57,29.93,29.89,29.85,10,9,3,21,9,24,0.04,3,Rain,257
2012-11-9,58,47,35,42,38,34,93,68,43,29.96,29.91,29.88,10,8,1,21,5,24,T,2,,286
2012-11-10,59,46,32,40,36,32,100,69,37,30.23,30.08,29.96,10,9,0,14,3,22,0.00,1,Fog,216
2012-11-11,58,45,32,39,35,31,92,68,43,30.37,30.32,30.24,10,10,10,13,5,16,0.00,0,,56
2012-11-12,62,48,34,40,36,33,92,66,39,30.37,30.31,30.25,10,10,10,10,3,20,0.00,0,,338
2012-11-13,69,53,37,42,37,33,85,56,26,30.25,30.16,30.07,10,10,10,12,5,15,0.00,0,,53
2012-11-14,72,55,38,49,43,36,93,69,44,30.11,30.05,30.00,10,10,8,15,4,26,0.00,0,,77
2012-11-15,68,56,43,52,47,42,93,71,48,30.01,29.98,29.94,10,9,2,18,6,23,0.00,1,,83
2012-11-16,48,48,48,,,,86,86,86,,,,,,,4,4,,0.00,,,-1
2012-11-17,,,,,,,,,,,,,,,,,,,,,,
2012-11-18,55,55,54,48,48,46,83,80,77,30.15,30.14,30.14,10,10,10,5,3,,0.00,5,,75
2012-11-19,66,57,47,52,48,45,89,71,52,30.23,30.18,30.13,10,10,10,13,4,16,0.00,5,,205
2012-11-20,65,61,57,59,55,50,93,81,69,30.15,30.06,29.99,10,8,2,18,10,25,0.63,8,Rain,185
2012-11-21,66,54,41,58,53,40,93,75,56,30.19,30.10,30.02,10,9,6,15,6,17,0.01,5,Rain,223
2012-11-22,64,51,37,47,40,36,100,76,52,30.25,30.21,30.16,10,5,0,8,2,12,0.00,0,Fog,144
2012-11-23,67,52,36,50,42,34,96,74,52,30.26,30.21,30.15,10,8,2,14,4,17,0.00,0,,45
2012-11-24,66,52,38,49,44,37,96,74,52,30.17,30.09,30.01,10,10,7,8,2,8,0.00,0,,346
2012-11-25,63,49,34,51,41,35,100,83,65,30.04,30.00,29.91,10,3,0,6,1,8,0.00,2,Fog,3
2012-11-26,65,52,39,53,45,37,100,84,67,30.08,30.03,29.96,10,2,0,10,2,13,0.00,3,Fog,304
2012-11-27,62,52,41,52,49,41,100,82,64,30.12,30.06,29.98,10,5,0,12,3,16,0.00,7,Fog,2
2012-11-28,63,56,49,57,52,45,93,83,72,30.02,29.92,29.82,10,7,1,24,9,32,0.72,6,Rain,143
2012-11-29,63,56,49,57,53,48,86,73,60,30.02,29.93,29.82,10,10,8,22,10,29,0.01,7,Rain,153
2012-11-30,62,60,58,59,57,54,90,87,84,30.00,29.85,29.73,10,8,2,29,14,38,0.84,8,Rain,187